Home   Weather   The Settlement   Past weeks

Flag for Christmas Island Past Weather in The Settlement, Christmas Island — Yesterday and Last 2 Weeks

Now
79 °F

Sunny.


Feels Like: 82 °F
Forecast: 74 / 78 °F
Wind: 8 mph from Northeast

Location: Christmas Island Aerodrome

Current Time: Apr 26, 2017 at 5:00:18 pm

Latest Report: Apr 26, 2017 at 4:30 pm


Visibility: N/A

Pressure: 29.86 "Hg

Humidity: 79%

Dew Point: 72 °F

Location of The SettlementLocation

Past Weather in The Settlement — Graph

°F

The Settlement Temperature Yesterday

Maximum temperature yesterday: 82 °F (at 12:30 pm)
Minimum temperature yesterday: 75 °F (at 12:00 am)
Average temperature yesterday: 78 °F

High & Low Weather Summary for the Past Weeks

 TemperatureHumidityPressure
High84 °F (Apr 12, 11:00 am)100% (Apr 20, 6:30 pm)30.01 "Hg (Apr 20, 6:30 pm)
Low72 °F (Apr 15, 4:30 am)62% (Apr 14, 10:00 am)29.83 "Hg (Apr 11, 4:00 pm)
Average78 °F84%29.91 "Hg
* Reported Apr 11 4:00 pm — Apr 26 4:00 pm, The Settlement, Weather by CustomWeather, © 2017

Note: Actual official high and low records may vary slightly from our data, if they occured in-between our weather recording intervals... More about our weather records

Advertising

The Settlement Weather History for the Previous 24 Hours

Scroll right to see more
 ConditionsComfort  
Time TempWeatherWind HumidityBarometerVisibility
4:00 pm
Wed, Apr 26
79 °FScattered clouds.8 mph84%29.86 "HgN/A
3:58 pm79 °FScattered clouds.8 mph84%29.86 "HgN/A
3:30 pm79 °FBroken clouds.9 mph89%29.86 "HgN/A
3:00 pm81 °FMostly cloudy.10 mph79%29.86 "HgN/A
2:35 pm81 °FPartly sunny.13 mph79%29.86 "HgN/A
2:00 pm81 °FBroken clouds.13 mph79%29.86 "HgN/A
1:30 pm79 °FMostly cloudy.13 mph84%29.89 "HgN/A
1:00 pm79 °FMostly cloudy.15 mph89%29.89 "HgN/A
12:40 pm75 °FSprinkles. Mostly cloudy.13 mph94%29.92 "HgN/A
12:00 pm79 °FCloudy.10 mph89%29.92 "HgN/A
11:30 am81 °FScattered clouds.12 mph79%29.92 "HgN/A
11:00 am81 °FSunny.7 mph74%29.92 "HgN/A
10:32 am79 °FBroken clouds.7 mph89%29.95 "HgN/A
10:00 am77 °FPartly sunny.8 mph94%29.95 "HgN/A
9:41 am75 °FBroken clouds.7 mph94%29.95 "HgN/A
9:30 am75 °FBroken clouds.6 mph94%29.95 "HgN/A
9:07 am75 °FMore clouds than sun.7 mph94%29.95 "HgN/A
8:30 am73 °FSprinkles. Partly sunny.9 mph100%29.95 "Hg3 mi
8:00 am73 °FLight rain. Mostly cloudy.12 mph100%29.95 "Hg5 mi
7:00 am73 °FLots of rain. Mostly cloudy.6 mph100%29.92 "Hg1 mi
6:43 am75 °FRain showers. More clouds than sun.6 mph94%29.92 "Hg4 mi
6:32 am75 °FSprinkles. Cloudy.8 mph94%29.92 "HgN/A
6:00 am77 °FOvercast.8 mph94%29.89 "HgN/A
5:30 am77 °FLight rain. Mostly cloudy.6 mph94%29.89 "HgN/A
5:00 am75 °FPassing clouds.7 mph89%29.86 "HgN/A
4:41 am75 °FPassing clouds.7 mph94%29.86 "HgN/A
4:30 am75 °FPassing clouds.8 mph94%29.86 "HgN/A
4:21 am75 °FMostly cloudy.8 mph94%29.86 "HgN/A
4:00 am73 °FPartly cloudy.5 mph100%29.89 "HgN/A
3:30 am73 °FPartly cloudy.6 mph100%29.86 "HgN/A
3:17 am73 °FSprinkles. Overcast.8 mph100%29.89 "HgN/A
3:00 am75 °FSprinkles. Mostly cloudy.8 mph94%29.89 "Hg5 mi
2:30 am75 °FLots of rain. Mostly cloudy.10 mph94%29.89 "Hg4 mi
2:00 am77 °FSprinkles. Mostly cloudy.7 mph94%29.89 "Hg3 mi
1:30 am75 °FMostly cloudy.5 mph100%29.89 "Hg5 mi
1:00 am77 °FSprinkles. Mostly cloudy.7 mph94%29.92 "HgN/A
12:30 am77 °FPassing clouds.7 mph94%29.92 "HgN/A
12:16 am77 °FPassing clouds.8 mph94%29.92 "HgN/A
12:00 am77 °FRain. Mostly cloudy.6 mph94%29.92 "HgN/A
11:33 pm
Tue, Apr 25
77 °FRain. Overcast.8 mph94%29.95 "HgN/A
11:14 pm77 °FRain. Low clouds.9 mph94%29.95 "Hg3 mi
11:00 pm79 °FMostly cloudy.8 mph89%29.95 "HgN/A
10:30 pm77 °FMostly cloudy.9 mph94%29.92 "HgN/A
10:00 pm77 °FPassing clouds.7 mph94%29.95 "HgN/A
9:30 pm79 °FOvercast.7 mph89%29.95 "HgN/A
9:00 pm77 °FMostly cloudy.9 mph94%29.95 "HgN/A
8:30 pm77 °FPassing clouds.8 mph94%29.95 "HgN/A
8:00 pm77 °FMostly cloudy.8 mph94%29.92 "HgN/A
7:30 pm77 °FMostly cloudy.8 mph94%29.92 "HgN/A
7:00 pm77 °FMostly cloudy.8 mph100%29.89 "HgN/A
6:30 pm77 °FMostly cloudy.8 mph94%29.89 "HgN/A
6:00 pm79 °FDrizzle. Mostly cloudy.8 mph94%29.89 "HgN/A
5:36 pm77 °FLots of rain. Cloudy.6 mph100%29.89 "Hg4 mi
5:00 pm79 °FLots of rain. Mostly cloudy.12 mph94%29.86 "Hg1 mi
Weather by CustomWeather, © 2017

See weather overviewHow to use our weather pages